contact:dominique.lefevre@mio.osupytheas.fr, maurice.libes@osupytheas.fr, didier.mallarino@osupytheas.fr
Project:EMSO http://www.emso-fr.org/EMSO-France
Depth: 2436.0 m
Title:EMSO Ligure Ouest : Data MII capteur CSTAR
DateTime,Latitude,Longitude,Instrument_Serial,Reference_Counts,Signal_Counts,Corrected_Signal_raw_counts,Calculated_Beam_c_inverse_meters,Internal_thermistor_counts
DateTime,Latitude,Longitude,Instrument_Serial,Reference_Counts,Signal_Counts,Corrected_Signal_raw_counts,Calculated_Beam_c_inverse_meters,Internal_thermistor_counts
2023-02-21T00:01:48,42.805,6.029,CST-1368DR,4377,4853,11781,01.127,551
2023-02-21T00:04:50,42.805,6.029,CST-1368DR,4377,4856,11787,01.125,551
2023-02-21T00:07:52,42.805,6.029,CST-1368DR,4377,4857,11788,01.125,551
2023-02-21T00:10:53,42.805,6.029,CST-1368DR,4377,4858,11792,01.123,551
2023-02-21T00:13:55,42.805,6.029,CST-1368DR,4377,4855,11784,01.126,551
2023-02-21T00:16:56,42.805,6.029,CST-1368DR,4377,4858,11791,01.124,551
2023-02-21T00:19:58,42.805,6.029,CST-1368DR,4377,4854,11783,01.127,551
2023-02-21T00:23:00,42.805,6.029,CST-1368DR,4377,4855,11785,01.126,551
2023-02-21T00:26:01,42.805,6.029,CST-1368DR,4377,4855,11785,01.126,551
2023-02-21T00:29:03,42.805,6.029,CST-1368DR,4377,4854,11783,01.127,551
2023-02-21T00:32:04,42.805,6.029,CST-1368DR,4377,4854,11783,01.127,551
2023-02-21T00:35:06,42.805,6.029,CST-1368DR,4377,4851,11774,01.130,551
2023-02-21T00:38:07,42.805,6.029,CST-1368DR,4376,4853,11782,01.127,551
2023-02-21T00:41:09,42.805,6.029,CST-1368DR,4376,4852,11780,01.128,551
2023-02-21T00:44:11,42.805,6.029,CST-1368DR,4377,4856,11787,01.125,551
2023-02-21T00:47:12,42.805,6.029,CST-1368DR,4377,4856,11788,01.125,551
2023-02-21T00:50:14,42.805,6.029,CST-1368DR,4377,4858,11792,01.123,551
2023-02-21T00:53:15,42.805,6.029,CST-1368DR,4377,4851,11775,01.129,551
2023-02-21T00:56:17,42.805,6.029,CST-1368DR,4377,4856,11787,01.125,551
2023-02-21T00:59:18,42.805,6.029,CST-1368DR,4377,4851,11775,01.129,551
2023-02-21T01:02:20,42.805,6.029,CST-1368DR,4377,4848,11768,01.132,551
2023-02-21T01:05:22,42.805,6.029,CST-1368DR,4377,4849,11769,01.131,551
2023-02-21T01:08:23,42.805,6.029,CST-1368DR,4377,4850,11773,01.130,551
2023-02-21T01:11:25,42.805,6.029,CST-1368DR,4377,4853,11781,01.127,551
2023-02-21T01:14:26,42.805,6.029,CST-1368DR,4376,4854,11784,01.126,551
2023-02-21T01:17:28,42.805,6.029,CST-1368DR,4377,4853,11781,01.127,551
2023-02-21T01:20:30,42.805,6.029,CST-1368DR,4377,4852,11778,01.128,551
2023-02-21T01:23:31,42.805,6.029,CST-1368DR,4377,4852,11777,01.129,551
2023-02-21T01:26:33,42.805,6.029,CST-1368DR,4377,4854,11781,01.127,551
2023-02-21T01:29:34,42.805,6.029,CST-1368DR,4377,4854,11782,01.127,551
2023-02-21T01:32:36,42.805,6.029,CST-1368DR,4376,4854,11785,01.126,551
2023-02-21T01:35:37,42.805,6.029,CST-1368DR,4376,4855,11786,01.126,551
2023-02-21T01:38:39,42.805,6.029,CST-1368DR,4377,4852,11778,01.128,551
2023-02-21T01:41:41,42.805,6.029,CST-1368DR,4376,4855,11786,01.126,551
2023-02-21T01:44:42,42.805,6.029,CST-1368DR,4377,4854,11782,01.127,551
2023-02-21T01:47:44,42.805,6.029,CST-1368DR,4377,4854,11782,01.127,551
2023-02-21T01:50:45,42.805,6.029,CST-1368DR,4376,4856,11790,01.124,551
2023-02-21T01:53:47,42.805,6.029,CST-1368DR,4376,4847,11769,01.131,551
2023-02-21T01:56:49,42.805,6.029,CST-1368DR,4376,4854,11784,01.126,551
2023-02-21T01:59:50,42.805,6.029,CST-1368DR,4376,4855,11787,01.125,551
2023-02-21T02:02:52,42.805,6.029,CST-1368DR,4377,4856,11788,01.125,551
2023-02-21T02:05:53,42.805,6.029,CST-1368DR,4376,4854,11784,01.126,551
2023-02-21T02:08:55,42.805,6.029,CST-1368DR,4376,4852,11780,01.128,551
2023-02-21T02:11:56,42.805,6.029,CST-1368DR,4376,4852,11780,01.128,551
2023-02-21T02:14:58,42.805,6.029,CST-1368DR,4376,4853,11783,01.127,551
2023-02-21T02:18:00,42.805,6.029,CST-1368DR,4376,4853,11783,01.127,551
2023-02-21T02:21:01,42.805,6.029,CST-1368DR,4376,4851,11777,01.129,551
2023-02-21T02:24:03,42.805,6.029,CST-1368DR,4376,4848,11770,01.131,551
2023-02-21T02:27:04,42.805,6.029,CST-1368DR,4376,4851,11778,01.128,551
2023-02-21T02:30:06,42.805,6.029,CST-1368DR,4376,4850,11776,01.129,551
2023-02-21T02:33:07,42.805,6.029,CST-1368DR,4376,4852,11781,01.127,551
2023-02-21T02:36:09,42.805,6.029,CST-1368DR,4376,4852,11779,01.128,551
2023-02-21T02:39:11,42.805,6.029,CST-1368DR,4376,4850,11774,01.130,551
2023-02-21T02:42:12,42.805,6.029,CST-1368DR,4376,4849,11772,01.130,551
2023-02-21T02:45:14,42.805,6.029,CST-1368DR,4376,4834,11735,01.143,551
2023-02-21T02:48:15,42.805,6.029,CST-1368DR,4376,4849,11773,01.130,551
2023-02-21T02:51:17,42.805,6.029,CST-1368DR,4376,4851,11778,01.128,551
2023-02-21T02:55:07,42.805,6.029,CST-1368DR,4376,4848,11771,01.131,551
2023-02-21T02:58:08,42.805,6.029,CST-1368DR,4376,4850,11776,01.129,551
2023-02-21T03:01:10,42.805,6.029,CST-1368DR,4376,4851,11777,01.129,551
2023-02-21T03:04:11,42.805,6.029,CST-1368DR,4376,4850,11775,01.129,551
2023-02-21T03:07:13,42.805,6.029,CST-1368DR,4376,4851,11777,01.129,551
2023-02-21T03:10:15,42.805,6.029,CST-1368DR,4376,4850,11775,01.129,551
2023-02-21T03:13:16,42.805,6.029,CST-1368DR,4376,4851,11777,01.129,551
2023-02-21T03:16:18,42.805,6.029,CST-1368DR,4376,4853,11783,01.127,551
2023-02-21T03:19:19,42.805,6.029,CST-1368DR,4376,4852,11779,01.128,551
2023-02-21T03:22:21,42.805,6.029,CST-1368DR,4376,4850,11775,01.129,551
2023-02-21T03:25:22,42.805,6.029,CST-1368DR,4376,4852,11780,01.128,551
2023-02-21T03:28:24,42.805,6.029,CST-1368DR,4376,4850,11776,01.129,551
2023-02-21T03:31:26,42.805,6.029,CST-1368DR,4376,4852,11779,01.128,551
2023-02-21T03:34:27,42.805,6.029,CST-1368DR,4376,4849,11772,01.130,551
2023-02-21T03:37:29,42.805,6.029,CST-1368DR,4376,4851,11777,01.129,551
2023-02-21T03:40:30,42.805,6.029,CST-1368DR,4376,4850,11775,01.129,551
2023-02-21T03:43:32,42.805,6.029,CST-1368DR,4376,4855,11787,01.125,551
2023-02-21T03:46:34,42.805,6.029,CST-1368DR,4376,4849,11772,01.130,551
2023-02-21T03:49:35,42.805,6.029,CST-1368DR,4376,4852,11780,01.128,551
2023-02-21T03:52:37,42.805,6.029,CST-1368DR,4376,4850,11775,01.129,551
2023-02-21T03:55:38,42.805,6.029,CST-1368DR,4376,4852,11781,01.127,551
2023-02-21T03:58:40,42.805,6.029,CST-1368DR,4376,4853,11783,01.127,551
2023-02-21T04:01:41,42.805,6.029,CST-1368DR,4376,4849,11772,01.130,551
2023-02-21T04:04:43,42.805,6.029,CST-1368DR,4376,4852,11780,01.128,551
2023-02-21T04:07:45,42.805,6.029,CST-1368DR,4376,4851,11777,01.129,551
2023-02-21T04:10:46,42.805,6.029,CST-1368DR,4376,4854,11785,01.126,551
2023-02-21T04:13:48,42.805,6.029,CST-1368DR,4376,4854,11784,01.126,551
2023-02-21T04:16:49,42.805,6.029,CST-1368DR,4376,4846,11766,01.132,551
2023-02-21T04:19:51,42.805,6.029,CST-1368DR,4376,4851,11777,01.129,551
2023-02-21T04:22:52,42.805,6.029,CST-1368DR,4376,4849,11772,01.130,551
2023-02-21T04:25:54,42.805,6.029,CST-1368DR,4376,4851,11777,01.129,551
2023-02-21T04:28:56,42.805,6.029,CST-1368DR,4376,4850,11775,01.129,551
2023-02-21T04:31:57,42.805,6.029,CST-1368DR,4376,4850,11776,01.129,551
2023-02-21T04:34:59,42.805,6.029,CST-1368DR,4376,4847,11767,01.132,551
2023-02-21T04:38:00,42.805,6.029,CST-1368DR,4376,4852,11780,01.128,551
2023-02-21T04:41:02,42.805,6.029,CST-1368DR,4376,4850,11776,01.129,551
2023-02-21T04:44:04,42.805,6.029,CST-1368DR,4376,4848,11771,01.131,551
2023-02-21T04:47:05,42.805,6.029,CST-1368DR,4376,4846,11766,01.132,551
2023-02-21T04:50:07,42.805,6.029,CST-1368DR,4376,4845,11764,01.133,551
2023-02-21T04:53:08,42.805,6.029,CST-1368DR,4376,4848,11769,01.131,551
2023-02-21T04:56:10,42.805,6.029,CST-1368DR,4376,4848,11770,01.131,551
2023-02-21T04:59:11,42.805,6.029,CST-1368DR,4376,4850,11775,01.129,551
2023-02-21T05:02:13,42.805,6.029,CST-1368DR,4376,4848,11770,01.131,551
2023-02-21T05:05:15,42.805,6.029,CST-1368DR,4376,4843,11759,01.135,551
2023-02-21T05:08:16,42.805,6.029,CST-1368DR,4376,4842,11756,01.136,551
2023-02-21T05:11:18,42.805,6.029,CST-1368DR,4376,4840,11751,01.137,551
2023-02-21T05:14:19,42.805,6.029,CST-1368DR,4376,4843,11758,01.135,551
2023-02-21T05:17:21,42.805,6.029,CST-1368DR,4376,4841,11753,01.137,551
2023-02-21T05:20:22,42.805,6.029,CST-1368DR,4376,4843,11759,01.135,551
2023-02-21T05:23:24,42.805,6.029,CST-1368DR,4376,4843,11758,01.135,551
2023-02-21T05:26:26,42.805,6.029,CST-1368DR,4376,4842,11756,01.136,551
2023-02-21T05:29:27,42.805,6.029,CST-1368DR,4376,4838,11746,01.139,551
2023-02-21T05:32:29,42.805,6.029,CST-1368DR,4376,4845,11763,01.133,551
2023-02-21T05:35:30,42.805,6.029,CST-1368DR,4376,4845,11762,01.134,551
2023-02-21T05:38:32,42.805,6.029,CST-1368DR,4376,4845,11762,01.134,551
2023-02-21T05:41:33,42.805,6.029,CST-1368DR,4376,4848,11769,01.131,551
2023-02-21T05:44:35,42.805,6.029,CST-1368DR,4376,4845,11763,01.133,551
2023-02-21T05:47:37,42.805,6.029,CST-1368DR,4376,4842,11756,01.136,551
2023-02-21T05:50:38,42.805,6.029,CST-1368DR,4376,4844,11760,01.134,551
2023-02-21T05:53:40,42.805,6.029,CST-1368DR,4376,4843,11759,01.135,551
2023-02-21T05:56:41,42.805,6.029,CST-1368DR,4376,4844,11760,01.134,551
2023-02-21T05:59:43,42.805,6.029,CST-1368DR,4376,4843,11759,01.135,551
2023-02-21T06:02:45,42.805,6.029,CST-1368DR,4376,4840,11750,01.138,551
2023-02-21T06:05:46,42.805,6.029,CST-1368DR,4376,4840,11750,01.138,551
2023-02-21T06:08:48,42.805,6.029,CST-1368DR,4376,4832,11731,01.144,551
2023-02-21T06:11:49,42.805,6.029,CST-1368DR,4376,4842,11756,01.136,551
2023-02-21T06:14:51,42.805,6.029,CST-1368DR,4376,4840,11751,01.137,551
2023-02-21T06:17:52,42.805,6.029,CST-1368DR,4376,4844,11760,01.134,551
2023-02-21T06:20:54,42.805,6.029,CST-1368DR,4376,4840,11751,01.137,551
2023-02-21T06:23:56,42.805,6.029,CST-1368DR,4376,4835,11738,01.142,551
2023-02-21T06:26:57,42.805,6.029,CST-1368DR,4376,4838,11745,01.139,551
2023-02-21T06:29:59,42.805,6.029,CST-1368DR,4376,4834,11735,01.143,551
2023-02-21T06:33:00,42.805,6.029,CST-1368DR,4376,4835,11739,01.142,551
2023-02-21T06:36:02,42.805,6.029,CST-1368DR,4376,4846,11766,01.132,551
2023-02-21T06:39:03,42.805,6.029,CST-1368DR,4376,4845,11763,01.133,551
2023-02-21T06:42:05,42.805,6.029,CST-1368DR,4376,4844,11761,01.134,551
2023-02-21T06:45:07,42.805,6.029,CST-1368DR,4376,4845,11762,01.134,551
2023-02-21T06:48:08,42.805,6.029,CST-1368DR,4376,4845,11763,01.133,551
2023-02-21T06:51:10,42.805,6.029,CST-1368DR,4376,4845,11763,01.133,551
2023-02-21T06:54:11,42.805,6.029,CST-1368DR,4376,4841,11753,01.137,551
2023-02-21T06:57:13,42.805,6.029,CST-1368DR,4376,4843,11759,01.135,551
2023-02-21T07:00:15,42.805,6.029,CST-1368DR,4376,4845,11763,01.133,551
2023-02-21T07:03:16,42.805,6.029,CST-1368DR,4376,4845,11763,01.133,551
2023-02-21T07:06:18,42.805,6.029,CST-1368DR,4376,4845,11762,01.134,551
2023-02-21T07:09:19,42.805,6.029,CST-1368DR,4376,4847,11768,01.132,551
2023-02-21T07:12:21,42.805,6.029,CST-1368DR,4376,4847,11768,01.132,551
2023-02-21T07:15:22,42.805,6.029,CST-1368DR,4376,4847,11768,01.132,551
2023-02-21T07:18:24,42.805,6.029,CST-1368DR,4376,4849,11772,01.130,551
2023-02-21T07:21:26,42.805,6.029,CST-1368DR,4376,4847,11767,01.132,551
2023-02-21T07:24:27,42.805,6.029,CST-1368DR,4376,4849,11772,01.130,551
2023-02-21T07:27:29,42.805,6.029,CST-1368DR,4376,4848,11770,01.131,551
2023-02-21T07:30:30,42.805,6.029,CST-1368DR,4376,4849,11772,01.130,551
2023-02-21T07:33:32,42.805,6.029,CST-1368DR,4376,4841,11753,01.137,551
2023-02-21T07:36:33,42.805,6.029,CST-1368DR,4376,4844,11761,01.134,551
2023-02-21T07:39:35,42.805,6.029,CST-1368DR,4376,4851,11778,01.128,551
2023-02-21T07:42:37,42.805,6.029,CST-1368DR,4376,4851,11777,01.129,551
2023-02-21T07:45:38,42.805,6.029,CST-1368DR,4376,4842,11756,01.136,551
2023-02-21T07:48:40,42.805,6.029,CST-1368DR,4376,4851,11778,01.128,551
2023-02-21T07:51:41,42.805,6.029,CST-1368DR,4376,4849,11772,01.130,551
2023-02-21T07:54:43,42.805,6.029,CST-1368DR,4376,4851,11778,01.128,551
2023-02-21T07:57:45,42.805,6.029,CST-1368DR,4376,4854,11785,01.126,551
2023-02-21T08:00:46,42.805,6.029,CST-1368DR,4376,4848,11770,01.131,551
2023-02-21T08:03:48,42.805,6.029,CST-1368DR,4376,4850,11775,01.129,551
2023-02-21T08:06:49,42.805,6.029,CST-1368DR,4376,4850,11775,01.129,551
2023-02-21T08:09:51,42.805,6.029,CST-1368DR,4376,4846,11764,01.133,551
2023-02-21T08:12:52,42.805,6.029,CST-1368DR,4376,4845,11764,01.133,551
2023-02-21T08:15:54,42.805,6.029,CST-1368DR,4376,4844,11760,01.134,551
2023-02-21T08:18:56,42.805,6.029,CST-1368DR,4376,4846,11764,01.133,551
2023-02-21T08:21:57,42.805,6.029,CST-1368DR,4376,4845,11762,01.134,551
2023-02-21T08:24:59,42.805,6.029,CST-1368DR,4376,4845,11764,01.133,551
2023-02-21T08:28:00,42.805,6.029,CST-1368DR,4376,4846,11764,01.133,551
2023-02-21T08:31:02,42.805,6.029,CST-1368DR,4376,4844,11761,01.134,551
2023-02-21T08:34:03,42.805,6.029,CST-1368DR,4376,4845,11763,01.133,551
2023-02-21T08:37:05,42.805,6.029,CST-1368DR,4376,4849,11772,01.130,551
2023-02-21T08:40:07,42.805,6.029,CST-1368DR,4376,4847,11769,01.131,551
2023-02-21T08:43:08,42.805,6.029,CST-1368DR,4376,4851,11777,01.129,551
2023-02-21T08:46:10,42.805,6.029,CST-1368DR,4376,4849,11772,01.130,551
2023-02-21T08:49:11,42.805,6.029,CST-1368DR,4376,4846,11766,01.132,551
2023-02-21T08:52:13,42.805,6.029,CST-1368DR,4376,4850,11774,01.130,551
2023-02-21T08:55:15,42.805,6.029,CST-1368DR,4376,4846,11766,01.132,551
2023-02-21T08:58:16,42.805,6.029,CST-1368DR,4376,4847,11767,01.132,551
2023-02-21T09:01:18,42.805,6.029,CST-1368DR,4376,4844,11760,01.134,551
2023-02-21T09:04:19,42.805,6.029,CST-1368DR,4376,4848,11769,01.131,551
2023-02-21T09:07:21,42.805,6.029,CST-1368DR,4376,4850,11776,01.129,551
2023-02-21T09:10:22,42.805,6.029,CST-1368DR,4376,4845,11764,01.133,551
2023-02-21T09:13:24,42.805,6.029,CST-1368DR,4376,4846,11764,01.133,551
2023-02-21T09:16:26,42.805,6.029,CST-1368DR,4376,4847,11768,01.132,551
2023-02-21T09:19:27,42.805,6.029,CST-1368DR,4376,4846,11766,01.132,551
2023-02-21T09:22:29,42.805,6.029,CST-1368DR,4376,4848,11771,01.131,551
2023-02-21T09:25:30,42.805,6.029,CST-1368DR,4376,4844,11760,01.134,551
2023-02-21T09:28:32,42.805,6.029,CST-1368DR,4376,4845,11764,01.133,551
2023-02-21T09:31:33,42.805,6.029,CST-1368DR,4376,4850,11774,01.130,551
2023-02-21T09:34:35,42.805,6.029,CST-1368DR,4376,4849,11772,01.130,551
2023-02-21T09:37:37,42.805,6.029,CST-1368DR,4376,4843,11759,01.135,551
2023-02-21T09:40:38,42.805,6.029,CST-1368DR,4376,4845,11763,01.133,551
2023-02-21T09:43:40,42.805,6.029,CST-1368DR,4376,4841,11752,01.137,551
2023-02-21T09:46:41,42.805,6.029,CST-1368DR,4376,4848,11769,01.131,551
2023-02-21T09:49:43,42.805,6.029,CST-1368DR,4376,4842,11756,01.136,551
2023-02-21T09:52:44,42.805,6.029,CST-1368DR,4376,4843,11758,01.135,551
2023-02-21T09:55:46,42.805,6.029,CST-1368DR,4376,4847,11767,01.132,551
2023-02-21T09:58:48,42.805,6.029,CST-1368DR,4376,4846,11766,01.132,551
2023-02-21T10:01:49,42.805,6.029,CST-1368DR,4376,4847,11769,01.131,551
2023-02-21T10:04:51,42.805,6.029,CST-1368DR,4376,4848,11769,01.131,551
2023-02-21T10:07:52,42.805,6.029,CST-1368DR,4376,4846,11764,01.133,551
2023-02-21T10:10:54,42.805,6.029,CST-1368DR,4376,4845,11764,01.133,551
2023-02-21T10:13:56,42.805,6.029,CST-1368DR,4376,4838,11747,01.139,551
2023-02-21T10:16:57,42.805,6.029,CST-1368DR,4376,4849,11772,01.130,551
2023-02-21T10:19:59,42.805,6.029,CST-1368DR,4376,4849,11773,01.130,551
2023-02-21T10:23:00,42.805,6.029,CST-1368DR,4376,4858,11794,01.123,551
2023-02-21T10:30:06,42.805,6.029,CST-1368DR,4376,4848,11770,01.131,551
2023-02-21T10:33:08,42.805,6.029,CST-1368DR,4376,4851,11777,01.129,551
2023-02-21T10:36:10,42.805,6.029,CST-1368DR,4376,4850,11775,01.129,551
2023-02-21T10:39:11,42.805,6.029,CST-1368DR,4376,4852,11779,01.128,551
2023-02-21T10:42:13,42.805,6.029,CST-1368DR,4376,4850,11775,01.129,551
2023-02-21T10:45:14,42.805,6.029,CST-1368DR,4376,4848,11770,01.131,551
2023-02-21T10:48:16,42.805,6.029,CST-1368DR,4376,4850,11776,01.129,551
2023-02-21T10:51:17,42.805,6.029,CST-1368DR,4376,4851,11777,01.129,551
2023-02-21T10:54:19,42.805,6.029,CST-1368DR,4376,4855,11786,01.126,551
2023-02-21T10:57:21,42.805,6.029,CST-1368DR,4376,4850,11775,01.129,551
2023-02-21T11:00:22,42.805,6.029,CST-1368DR,4376,4848,11770,01.131,551
2023-02-21T11:03:24,42.805,6.029,CST-1368DR,4376,4852,11781,01.127,551
2023-02-21T11:06:25,42.805,6.029,CST-1368DR,4376,4851,11778,01.128,551
2023-02-21T11:09:27,42.805,6.029,CST-1368DR,4376,4852,11779,01.128,551
2023-02-21T11:12:29,42.805,6.029,CST-1368DR,4376,4853,11782,01.127,551
2023-02-21T11:15:30,42.805,6.029,CST-1368DR,4376,4846,11766,01.132,551
2023-02-21T11:18:32,42.805,6.029,CST-1368DR,4376,4846,11764,01.133,551
2023-02-21T11:21:33,42.805,6.029,CST-1368DR,4376,4844,11760,01.134,551
2023-02-21T11:24:35,42.805,6.029,CST-1368DR,4376,4849,11772,01.130,551
2023-02-21T11:27:36,42.805,6.029,CST-1368DR,4376,4850,11775,01.129,551
2023-02-21T11:30:38,42.805,6.029,CST-1368DR,4376,4850,11774,01.130,551
2023-02-21T11:33:40,42.805,6.029,CST-1368DR,4376,4848,11771,01.131,551
2023-02-21T11:36:41,42.805,6.029,CST-1368DR,4376,4850,11775,01.129,551
2023-02-21T11:39:43,42.805,6.029,CST-1368DR,4376,4848,11770,01.131,551
2023-02-21T11:42:44,42.805,6.029,CST-1368DR,4376,4848,11770,01.131,551
2023-02-21T11:45:46,42.805,6.029,CST-1368DR,4376,4847,11767,01.132,551
2023-02-21T11:48:48,42.805,6.029,CST-1368DR,4376,4848,11770,01.131,551
2023-02-21T11:51:49,42.805,6.029,CST-1368DR,4376,4846,11764,01.133,551
2023-02-21T11:54:51,42.805,6.029,CST-1368DR,4376,4848,11770,01.131,551
2023-02-21T11:57:52,42.805,6.029,CST-1368DR,4376,4847,11767,01.132,551
2023-02-21T12:00:54,42.805,6.029,CST-1368DR,4376,4849,11773,01.130,551
2023-02-21T12:03:55,42.805,6.029,CST-1368DR,4376,4843,11759,01.135,551
2023-02-21T12:06:57,42.805,6.029,CST-1368DR,4376,4846,11766,01.132,551
2023-02-21T12:09:59,42.805,6.029,CST-1368DR,4376,4850,11775,01.129,551
2023-02-21T12:13:00,42.805,6.029,CST-1368DR,4376,4850,11774,01.130,551
2023-02-21T12:16:02,42.805,6.029,CST-1368DR,4376,4849,11772,01.130,551
2023-02-21T12:19:03,42.805,6.029,CST-1368DR,4376,4848,11770,01.131,551
2023-02-21T12:22:05,42.805,6.029,CST-1368DR,4376,4849,11772,01.130,551
2023-02-21T12:25:06,42.805,6.029,CST-1368DR,4376,4848,11769,01.131,551
2023-02-21T12:28:08,42.805,6.029,CST-1368DR,4376,4847,11767,01.132,551
2023-02-21T12:31:10,42.805,6.029,CST-1368DR,4376,4847,11767,01.132,551
2023-02-21T12:34:11,42.805,6.029,CST-1368DR,4376,4848,11769,01.131,551
2023-02-21T12:37:13,42.805,6.029,CST-1368DR,4376,4848,11771,01.131,551
2023-02-21T12:40:14,42.805,6.029,CST-1368DR,4376,4847,11767,01.132,551
2023-02-21T12:43:16,42.805,6.029,CST-1368DR,4376,4847,11769,01.131,551
2023-02-21T12:46:17,42.805,6.029,CST-1368DR,4376,4850,11775,01.129,551
2023-02-21T12:49:19,42.805,6.029,CST-1368DR,4376,4848,11771,01.131,551
2023-02-21T12:52:21,42.805,6.029,CST-1368DR,4376,4846,11766,01.132,551
2023-02-21T12:55:22,42.805,6.029,CST-1368DR,4376,4845,11762,01.134,551
2023-02-21T12:58:24,42.805,6.029,CST-1368DR,4376,4846,11766,01.132,551
2023-02-21T13:01:25,42.805,6.029,CST-1368DR,4376,4848,11769,01.131,551
2023-02-21T13:04:27,42.805,6.029,CST-1368DR,4376,4847,11768,01.132,551
2023-02-21T13:07:29,42.805,6.029,CST-1368DR,4376,4849,11772,01.130,551
2023-02-21T13:10:30,42.805,6.029,CST-1368DR,4376,4850,11775,01.129,551
2023-02-21T13:13:32,42.805,6.029,CST-1368DR,4376,4849,11772,01.130,551
2023-02-21T13:16:33,42.805,6.029,CST-1368DR,4376,4850,11775,01.129,551
2023-02-21T13:19:35,42.805,6.029,CST-1368DR,4376,4851,11778,01.128,551
2023-02-21T13:22:36,42.805,6.029,CST-1368DR,4376,4850,11775,01.129,551
2023-02-21T13:25:38,42.805,6.029,CST-1368DR,4376,4851,11778,01.128,551
2023-02-21T13:28:40,42.805,6.029,CST-1368DR,4376,4851,11778,01.128,551
2023-02-21T13:31:41,42.805,6.029,CST-1368DR,4376,4849,11773,01.130,551
2023-02-21T13:34:43,42.805,6.029,CST-1368DR,4376,4851,11777,01.129,551
2023-02-21T13:37:44,42.805,6.029,CST-1368DR,4376,4848,11771,01.131,551
2023-02-21T13:40:46,42.805,6.029,CST-1368DR,4376,4848,11769,01.131,551
2023-02-21T13:43:47,42.805,6.029,CST-1368DR,4376,4848,11771,01.131,551
2023-02-21T13:46:49,42.805,6.029,CST-1368DR,4376,4848,11771,01.131,551
2023-02-21T13:49:51,42.805,6.029,CST-1368DR,4376,4848,11770,01.131,551
2023-02-21T13:52:52,42.805,6.029,CST-1368DR,4376,4848,11770,01.131,551
2023-02-21T13:55:54,42.805,6.029,CST-1368DR,4376,4850,11776,01.129,551
2023-02-21T13:58:55,42.805,6.029,CST-1368DR,4376,4847,11769,01.131,551
2023-02-21T14:01:57,42.805,6.029,CST-1368DR,4376,4847,11769,01.131,551
2023-02-21T14:04:59,42.805,6.029,CST-1368DR,4376,4848,11770,01.131,551
2023-02-21T14:08:00,42.805,6.029,CST-1368DR,4376,4852,11780,01.128,551
2023-02-21T14:11:02,42.805,6.029,CST-1368DR,4376,4847,11767,01.132,551
2023-02-21T14:14:03,42.805,6.029,CST-1368DR,4376,4844,11760,01.134,551
2023-02-21T14:17:05,42.805,6.029,CST-1368DR,4376,4852,11780,01.128,551
2023-02-21T14:20:06,42.805,6.029,CST-1368DR,4376,4846,11764,01.133,551
2023-02-21T14:23:08,42.805,6.029,CST-1368DR,4376,4851,11778,01.128,551
2023-02-21T14:26:10,42.805,6.029,CST-1368DR,4376,4843,11759,01.135,551
2023-02-21T14:29:11,42.805,6.029,CST-1368DR,4376,4852,11780,01.128,551
2023-02-21T14:32:13,42.805,6.029,CST-1368DR,4376,4852,11779,01.128,551
2023-02-21T14:35:14,42.805,6.029,CST-1368DR,4376,4851,11778,01.128,551
2023-02-21T14:38:16,42.805,6.029,CST-1368DR,4376,4854,11784,01.126,551
2023-02-21T14:41:17,42.805,6.029,CST-1368DR,4376,4852,11780,01.128,551
2023-02-21T14:44:19,42.805,6.029,CST-1368DR,4376,4852,11780,01.128,551
2023-02-21T14:47:21,42.805,6.029,CST-1368DR,4376,4852,11780,01.128,551
2023-02-21T14:50:22,42.805,6.029,CST-1368DR,4376,4852,11780,01.128,551
2023-02-21T14:53:24,42.805,6.029,CST-1368DR,4376,4852,11779,01.128,551
2023-02-21T14:56:25,42.805,6.029,CST-1368DR,4376,4850,11774,01.130,551
2023-02-21T14:59:27,42.805,6.029,CST-1368DR,4376,4851,11777,01.129,551
2023-02-21T15:02:28,42.805,6.029,CST-1368DR,4376,4852,11779,01.128,551
2023-02-21T15:05:30,42.805,6.029,CST-1368DR,4376,4851,11778,01.128,551
2023-02-21T15:08:32,42.805,6.029,CST-1368DR,4376,4854,11784,01.126,551
2023-02-21T15:11:33,42.805,6.029,CST-1368DR,4376,4852,11780,01.128,551
2023-02-21T15:14:35,42.805,6.029,CST-1368DR,4376,4851,11778,01.128,551
2023-02-21T15:17:36,42.805,6.029,CST-1368DR,4376,4851,11778,01.128,551
2023-02-21T15:20:38,42.805,6.029,CST-1368DR,4376,4852,11780,01.128,551
2023-02-21T15:23:40,42.805,6.029,CST-1368DR,4376,4851,11778,01.128,551
2023-02-21T15:26:41,42.805,6.029,CST-1368DR,4376,4848,11770,01.131,551
2023-02-21T15:29:43,42.805,6.029,CST-1368DR,4376,4850,11776,01.129,551
2023-02-21T15:32:44,42.805,6.029,CST-1368DR,4376,4852,11780,01.128,551
2023-02-21T15:35:46,42.805,6.029,CST-1368DR,4376,4850,11776,01.129,551
2023-02-21T15:38:47,42.805,6.029,CST-1368DR,4376,4852,11780,01.128,551
2023-02-21T15:41:49,42.805,6.029,CST-1368DR,4376,4852,11779,01.128,551
2023-02-21T15:44:51,42.805,6.029,CST-1368DR,4376,4853,11783,01.127,551
2023-02-21T15:47:52,42.805,6.029,CST-1368DR,4376,4851,11777,01.129,551
2023-02-21T15:50:54,42.805,6.029,CST-1368DR,4376,4847,11769,01.131,551
2023-02-21T15:53:55,42.805,6.029,CST-1368DR,4376,4848,11770,01.131,551
2023-02-21T15:56:57,42.805,6.029,CST-1368DR,4376,4849,11773,01.130,551
2023-02-21T15:59:58,42.805,6.029,CST-1368DR,4376,4847,11769,01.131,551
2023-02-21T16:03:00,42.805,6.029,CST-1368DR,4376,4847,11769,01.131,551
2023-02-21T16:06:02,42.805,6.029,CST-1368DR,4376,4846,11766,01.132,551
2023-02-21T16:09:03,42.805,6.029,CST-1368DR,4376,4847,11767,01.132,551
2023-02-21T16:12:05,42.805,6.029,CST-1368DR,4376,4848,11770,01.131,551
2023-02-21T16:15:06,42.805,6.029,CST-1368DR,4376,4846,11764,01.133,551
2023-02-21T16:18:08,42.805,6.029,CST-1368DR,4376,4849,11772,01.130,551
2023-02-21T16:21:10,42.805,6.029,CST-1368DR,4376,4848,11770,01.131,551
2023-02-21T16:24:11,42.805,6.029,CST-1368DR,4376,4845,11763,01.133,551
2023-02-21T16:27:13,42.805,6.029,CST-1368DR,4376,4850,11775,01.129,551
2023-02-21T16:30:14,42.805,6.029,CST-1368DR,4376,4844,11760,01.134,551
2023-02-21T16:33:16,42.805,6.029,CST-1368DR,4376,4846,11766,01.132,551
2023-02-21T16:36:17,42.805,6.029,CST-1368DR,4376,4844,11761,01.134,551
2023-02-21T16:39:19,42.805,6.029,CST-1368DR,4376,4850,11776,01.129,551
2023-02-21T16:42:21,42.805,6.029,CST-1368DR,4376,4847,11769,01.131,551